Location: *
(38.9800°N, 16.0500°E)
Time: 04:51:31
(UTC+00:00)

Cosmos 1378 - Pass Details

Date: 07 April 2020
Orbit: 491 x 503 km, 82.5° (Epoch: 27 May)

Event Time Altitude Azimuth Distance (km) Brightness Sun altitude
Rises 03:49:18 0° 187° (S) 2,565 6.5 -8.7°
Reaches altitude 10° 03:51:23 10° 188° (S) 1,689 5.6 -8.3°
Maximum altitude 03:55:05 86° 273° (W) 505 3.1 -7.6°
Drops below altitude 10° 03:58:51 10° 7° (N) 1,711 6.1 -6.9°
Sets 04:00:59 0° 7° (N) 2,601 7.1 -6.5°
